When you browse on this site, cookies collect data to enhance your experience and personalize the content and advertising you see.
Visit our Privacy Policy to learn more. By continuing to use the site, you agree to this use of cookies and data.

Hourly Weather Maturín

Today, 7 July, Tuesday

Time Temperature Precipitation Wind Pressure Humidity
00:00 +25°C° 0.4 mm 1 mps 755 mmHg 96%
01:00 +25°C° 0.4 mm 1 mps 755 mmHg 96%
02:00 +25°C° 0.4 mm 1 mps 755 mmHg 97%
03:00 +25°C° 0.3 mm 1 mps 754 mmHg 97%
04:00 +23°C° 0.3 mm 0 mps 754 mmHg 96%
05:00 +23°C° 0.3 mm 0 mps 754 mmHg 96%
06:00 +24°C° 0.3 mm 0 mps 755 mmHg 93%
07:00 +25°C° 0.3 mm 0 mps 755 mmHg 90%
08:00 +26°C° 0.3 mm 0 mps 755 mmHg 87%
09:00 +26°C° 1.6 mm 0 mps 755 mmHg 85%
10:00 +29°C° 1.6 mm 1 mps 756 mmHg 83%
11:00 +30°C° 1.6 mm 1 mps 756 mmHg 81%
12:00 +31°C° 0.4 mm 1 mps 755 mmHg 75%
13:00 +32°C° 0.4 mm 1 mps 755 mmHg 68%
14:00 +33°C° 0.4 mm 1 mps 755 mmHg 62%
15:00 +32°C° 0.4 mm 1 mps 754 mmHg 69%
16:00 +31°C° 0.4 mm 2 mps 754 mmHg 77%
17:00 +29°C° 0.4 mm 2 mps 754 mmHg 84%
18:00 +28°C° 0.1 mm 2 mps 754 mmHg 87%
19:00 +28°C° 0.1 mm 2 mps 755 mmHg 90%
20:00 +27°C° 0.1 mm 2 mps 755 mmHg 92%
21:00 +26°C° 0 mm 2 mps 756 mmHg 93%
22:00 +26°C° 0 mm 2 mps 756 mmHg 94%
23:00 +26°C° 0 mm 2 mps 756 mmHg 96%

Tomorrow, 8 July, Wednesday

Time Temperature Precipitation Wind Pressure Humidity
00:00 +26°C° 0 mm 1 mps 756 mmHg 96%
01:00 +25°C° 0 mm 1 mps 755 mmHg 97%
02:00 +25°C° 0 mm 1 mps 755 mmHg 97%
03:00 +25°C° 0 mm 1 mps 755 mmHg 97%
04:00 +25°C° 0 mm 1 mps 755 mmHg 97%
05:00 +25°C° 0 mm 1 mps 755 mmHg 97%
06:00 +26°C° 0 mm 1 mps 755 mmHg 94%
07:00 +27°C° 0 mm 1 mps 756 mmHg 91%
08:00 +28°C° 0 mm 1 mps 756 mmHg 88%
09:00 +29°C° 0.2 mm 1 mps 756 mmHg 80%
10:00 +31°C° 0.2 mm 2 mps 756 mmHg 73%
11:00 +32°C° 0.2 mm 2 mps 756 mmHg 65%
12:00 +33°C° 0.2 mm 3 mps 755 mmHg 65%
13:00 +33°C° 0.2 mm 3 mps 755 mmHg 64%
14:00 +34°C° 0.2 mm 3 mps 754 mmHg 64%
15:00 +33°C° 0.1 mm 3 mps 754 mmHg 66%
16:00 +33°C° 0.1 mm 3 mps 754 mmHg 68%
17:00 +31°C° 0.1 mm 3 mps 753 mmHg 71%
18:00 +30°C° 0 mm 3 mps 754 mmHg 78%
19:00 +28°C° 0 mm 2 mps 754 mmHg 85%
20:00 +27°C° 0 mm 2 mps 755 mmHg 92%
21:00 +26°C° 0.2 mm 2 mps 755 mmHg 94%
22:00 +26°C° 0.2 mm 2 mps 755 mmHg 95%
23:00 +26°C° 0.2 mm 2 mps 756 mmHg 97%

Day after tomorrow, 9 July, Thursday

Time Temperature Precipitation Wind Pressure Humidity
00:00 +25°C° 0.1 mm 2 mps 755 mmHg 97%
01:00 +25°C° 0.1 mm 1 mps 755 mmHg 97%
02:00 +24°C° 0.1 mm 1 mps 755 mmHg 97%
03:00 +24°C° 0 mm 1 mps 755 mmHg 97%
04:00 +24°C° 0 mm 1 mps 755 mmHg 96%
05:00 +24°C° 0 mm 1 mps 755 mmHg 96%
06:00 +25°C° 0.1 mm 1 mps 755 mmHg 93%
07:00 +26°C° 0.1 mm 2 mps 755 mmHg 90%
08:00 +27°C° 0.1 mm 2 mps 756 mmHg 87%
09:00 +28°C° 0.6 mm 2 mps 756 mmHg 84%
10:00 +29°C° 0.6 mm 3 mps 756 mmHg 81%
11:00 +30°C° 0.6 mm 3 mps 756 mmHg 78%
12:00 +31°C° 0.5 mm 3 mps 755 mmHg 74%
13:00 +31°C° 0.5 mm 3 mps 755 mmHg 71%
14:00 +33°C° 0.5 mm 3 mps 754 mmHg 67%
15:00 +31°C° 0.2 mm 3 mps 754 mmHg 68%
16:00 +31°C° 0.2 mm 3 mps 754 mmHg 69%
17:00 +31°C° 0.2 mm 3 mps 753 mmHg 70%
18:00 +29°C° 0 mm 3 mps 754 mmHg 77%
19:00 +28°C° 0 mm 2 mps 754 mmHg 83%
20:00 +26°C° 0 mm 2 mps 755 mmHg 90%
21:00 +26°C° 0.2 mm 2 mps 755 mmHg 92%
22:00 +25°C° 0.2 mm 1 mps 755 mmHg 94%
23:00 +25°C° 0.2 mm 1 mps 756 mmHg 96%

10 July, Friday

Time Temperature Precipitation Wind Pressure Humidity
00:00 +25°C° 0.4 mm 1 mps 756 mmHg 96%
01:00 +25°C° 0.4 mm 1 mps 755 mmHg 97%
02:00 +25°C° 0.4 mm 1 mps 755 mmHg 98%
03:00 +25°C° 0.1 mm 1 mps 755 mmHg 98%
04:00 +24°C° 0.1 mm 1 mps 755 mmHg 97%
05:00 +24°C° 0.1 mm 1 mps 755 mmHg 97%
06:00 +25°C° 0 mm 1 mps 756 mmHg 95%
07:00 +26°C° 0 mm 1 mps 756 mmHg 92%
08:00 +27°C° 0 mm 1 mps 756 mmHg 90%
09:00 +28°C° 0.7 mm 2 mps 756 mmHg 86%
10:00 +29°C° 0.7 mm 2 mps 756 mmHg 82%
11:00 +30°C° 0.7 mm 2 mps 756 mmHg 79%
12:00 +30°C° 1.3 mm 3 mps 756 mmHg 78%
13:00 +31°C° 1.3 mm 3 mps 755 mmHg 78%
14:00 +31°C° 1.3 mm 3 mps 755 mmHg 77%
15:00 +30°C° 1.6 mm 3 mps 754 mmHg 80%
16:00 +29°C° 1.6 mm 3 mps 754 mmHg 83%
17:00 +29°C° 1.6 mm 3 mps 754 mmHg 86%
18:00 +28°C° 1 mm 3 mps 754 mmHg 88%
19:00 +27°C° 1 mm 2 mps 755 mmHg 91%
20:00 +26°C° 1 mm 2 mps 755 mmHg 93%
21:00 +26°C° 0.1 mm 2 mps 756 mmHg 94%
22:00 +26°C° 0.1 mm 2 mps 756 mmHg 95%
23:00 +26°C° 0.1 mm 1 mps 756 mmHg 95%

11 July, Saturday

Time Temperature Precipitation Wind Pressure Humidity
00:00 +25°C° 1.9 mm 1 mps 756 mmHg 96%
01:00 +25°C° 1.9 mm 1 mps 755 mmHg 97%
02:00 +25°C° 1.9 mm 1 mps 754 mmHg 97%
03:00 +25°C° 1 mm 1 mps 754 mmHg 98%
04:00 +25°C° 1 mm 1 mps 754 mmHg 98%
05:00 +25°C° 1 mm 1 mps 754 mmHg 98%
06:00 +26°C° 1.5 mm 1 mps 755 mmHg 96%
07:00 +27°C° 1.5 mm 1 mps 755 mmHg 94%
08:00 +27°C° 1.5 mm 1 mps 755 mmHg 91%
09:00 +28°C° 2.3 mm 2 mps 756 mmHg 88%
10:00 +29°C° 2.3 mm 2 mps 756 mmHg 85%
11:00 +30°C° 2.3 mm 2 mps 756 mmHg 82%
12:00 +30°C° 3 mm 2 mps 755 mmHg 81%
13:00 +30°C° 3 mm 1 mps 755 mmHg 81%
14:00 +31°C° 3 mm 1 mps 754 mmHg 81%
15:00 +30°C° 2.4 mm 1 mps 754 mmHg 84%
16:00 +29°C° 2.4 mm 2 mps 754 mmHg 88%
17:00 +28°C° 2.4 mm 2 mps 754 mmHg 91%
18:00 +27°C° 0.3 mm 2 mps 754 mmHg 92%
19:00 +26°C° 0.3 mm 2 mps 755 mmHg 93%
20:00 +26°C° 0.3 mm 2 mps 755 mmHg 95%
21:00 +26°C° 1.1 mm 2 mps 755 mmHg 95%
22:00 +25°C° 1.1 mm 1 mps 756 mmHg 96%
23:00 +25°C° 1.1 mm 1 mps 756 mmHg 96%

12 July, Sunday

Time Temperature Precipitation Wind Pressure Humidity
00:00 +25°C° 1.1 mm 1 mps 756 mmHg 96%
01:00 +25°C° 1.1 mm 1 mps 755 mmHg 96%
02:00 +23°C° 1.1 mm 0 mps 755 mmHg 96%
03:00 +23°C° 1 mm 0 mps 755 mmHg 97%
04:00 +25°C° 1 mm 1 mps 755 mmHg 97%
05:00 +24°C° 1 mm 1 mps 755 mmHg 98%
06:00 +25°C° 0.3 mm 1 mps 756 mmHg 96%
07:00 +26°C° 0.3 mm 1 mps 756 mmHg 94%
08:00 +27°C° 0.3 mm 1 mps 756 mmHg 93%
09:00 +28°C° 0.4 mm 1 mps 756 mmHg 85%
10:00 +30°C° 0.4 mm 2 mps 756 mmHg 78%
11:00 +31°C° 0.4 mm 2 mps 757 mmHg 71%
12:00 +31°C° 0.3 mm 2 mps 756 mmHg 70%
13:00 +31°C° 0.3 mm 3 mps 755 mmHg 70%
14:00 +33°C° 0.3 mm 3 mps 755 mmHg 70%
15:00 +31°C° 0.6 mm 3 mps 755 mmHg 75%
16:00 +30°C° 0.6 mm 3 mps 754 mmHg 80%
17:00 +29°C° 0.6 mm 3 mps 754 mmHg 85%
18:00 +28°C° 0.4 mm 2 mps 755 mmHg 88%
19:00 +27°C° 0.4 mm 2 mps 755 mmHg 92%
20:00 +26°C° 0.4 mm 2 mps 756 mmHg 95%
21:00 +26°C° 0.2 mm 2 mps 756 mmHg 95%
22:00 +25°C° 0.2 mm 2 mps 757 mmHg 96%
23:00 +25°C° 0.2 mm 2 mps 757 mmHg 96%
Show more